Home > Weather > Alice Springs > Past weeks

Flag for Australia Past Weather in Alice Springs, Northern Territory, Australia — Yesterday and Last 2 Weeks

Now
61 °F

Overcast.


Feels Like: 61 °F
Forecast: 47 / 60 °F
Wind: 8 mph from East

Location: Alice Springs Aerodrome

Current Time: Jun 25, 2016 at 8:11:07 PM

Latest Report: Jun 25, 2016 at 7:30 PM


Visibility: N/A

Pressure: 30.01 "Hg (28.02 "Hg at 581m altitude)

Humidity: 55%

Dew Point: 45 °F

Location of Alice SpringsLocation

Past Weather in Alice Springs — Graph

°F

Alice Springs Temperature Yesterday

Maximum temperature yesterday: 63 °F (at 12:00 AM)
Minimum temperature yesterday: 52 °F (at 7:00 AM)
Average temperature yesterday: 57 °F

High & Low Weather Summary for the Past Weeks

 TemperatureHumidityPressure
High81 °F (Jun 16, 1:00 PM)100% (Jun 12, 4:00 AM)30.45 "Hg (Jun 12, 4:00 AM)
Low34 °F (Jun 13, 6:00 AM)18% (Jun 21, 3:30 PM)29.89 "Hg (Jun 21, 2:00 PM)
Average58 °F67%30.12 "Hg
* Reported Jun 10 6:30 PM — Jun 25 6:30 PM, Alice Springs, Weather by CustomWeather, © 2016

Note: Actual official high and low records may vary slightly from our data, if they occured in-between our weather recording intervals... More about our weather records

Advertising

Alice Springs Weather History for the Previous 24 Hours

Scroll right to see more
 ConditionsComfort  
Time TempWeatherWind HumidityBarometerVisibility
6:30 PM
Sat, Jun 25
61 °FPassing clouds.9 mph55%29.98 "HgN/A
6:00 PM61 °FOvercast.10 mph52%29.98 "HgN/A
5:30 PM63 °FOvercast.9 mph49%29.98 "HgN/A
5:00 PM63 °FOvercast.10 mph49%29.98 "HgN/A
4:30 PM64 °FOvercast.10 mph46%29.98 "HgN/A
4:00 PM64 °FOvercast.8 mph46%30.01 "HgN/A
3:30 PM64 °FOvercast.8 mph46%30.01 "HgN/A
3:00 PM64 °FMostly cloudy.9 mph46%30.01 "HgN/A
2:30 PM63 °FOvercast.10 mph45%30.01 "HgN/A
2:00 PM64 °FScattered clouds.9 mph43%30.04 "HgN/A
1:30 PM63 °FMore clouds than sun.12 mph45%30.07 "HgN/A
1:00 PM59 °FOvercast.10 mph51%30.07 "HgN/A
12:30 PM59 °FMore clouds than sun.8 mph48%30.09 "HgN/A
12:00 PM59 °FCloudy.10 mph51%30.12 "HgN/A
11:30 AM57 °FMore clouds than sun.12 mph51%30.12 "HgN/A
10:30 AM55 °FOvercast.12 mph59%30.15 "HgN/A
10:00 AM54 °FOvercast.10 mph63%30.15 "HgN/A
9:30 AM54 °FOvercast.13 mph63%30.15 "HgN/A
8:30 AM52 °FOvercast.10 mph67%30.15 "HgN/A
7:30 AM48 °FSunny.9 mph82%30.12 "HgN/A
6:30 AM48 °FClear.8 mph82%30.09 "HgN/A
5:30 AM50 °FPassing clouds.7 mph82%30.12 "HgN/A
5:00 AM50 °FOvercast.6 mph82%30.12 "HgN/A
4:30 AM50 °FOvercast.5 mph88%30.12 "HgN/A
4:00 AM48 °FPassing clouds.5 mph87%30.12 "HgN/A
3:30 AM50 °FClear.5 mph82%30.12 "HgN/A
2:30 AM50 °FPassing clouds.7 mph82%30.12 "HgN/A
2:00 AM52 °FPassing clouds.5 mph77%30.15 "HgN/A
1:30 AM52 °FPassing clouds.6 mph77%30.15 "HgN/A
12:30 AM54 °FPassing clouds.6 mph72%30.15 "HgN/A
12:00 AM54 °FOvercast.8 mph72%30.15 "HgN/A
11:30 PM
Fri, Jun 24
54 °FOvercast.8 mph72%30.15 "HgN/A
11:00 PM54 °FOvercast.10 mph72%30.18 "HgN/A
10:30 PM54 °FOvercast.12 mph77%30.18 "HgN/A
10:00 PM54 °FOvercast.12 mph77%30.18 "HgN/A
9:30 PM55 °FMostly cloudy.12 mph63%30.18 "HgN/A
9:00 PM57 °FPartly cloudy.8 mph59%30.18 "HgN/A
8:30 PM57 °FMostly cloudy.10 mph59%30.15 "HgN/A
8:00 PM57 °FOvercast.8 mph55%30.15 "HgN/A
Weather by CustomWeather, © 2016

See weather overviewHow to use our weather pages